{"data":{"norad_id":59501,"epoch":"2026-09-21T10:23:24.464256Z","epoch_age_seconds":84489,"freshness":"FRESH","line1":"1 59501U 24071T   26264.43292204  .00000381  00000+0  23366-4 0  9995","line2":"2 59501  43.0020 314.1469 0001277 274.3128  85.7578 15.27579020138148","mean_motion":15.2757902,"eccentricity":0.0001277,"inclination_deg":43.002,"raan_deg":314.1469,"arg_perigee_deg":274.3128,"mean_anomaly_deg":85.7578,"bstar":2.3366e-5,"rev_number":13814,"period_min":94.266809189354,"perigee_km":482.17585667458,"apogee_km":483.92820435297,"semimajor_km":6861.1890305138,"source":"CELESTRAK","updated_at":"2026-09-22T09:00:48.960458Z"}}